Weather in Bogoslovka

Russia / Tomsk District     56°48′09″N   86°43′24″E
temp.,
°C
wind,
m/s
gust,
m/s
humid.,
%
clouds,
%
prec.,
mm/h
press.,
hPa
HPBL,
m
5 march, fri
fri501:00−4ssw81589100 0.1 1014758
04:00−5ssw81684100 0.0 1013573
07:00−7ssw71582100 0.0 1012512
10:00−6ssw71682100 0.0 1011626
13:00−2ssw81478100 0.0 10091046
16:00−3ssw81392100 0.1 10071210
19:00−4sw71585100 0.6 1010935
22:00−6sw8168493 0.0 1013865
6 march, sat
sat601:00−6sw6149096 0.1 1014831
04:00−5sw7149093 0.2 1012936
07:00−5sw7148997 0.3 1013785
10:00−5sw91591100 0.4 1012929
13:00−4sw91592100 1.1 10101120
16:00−4sw91691100 0.5 10081249
19:00−5sw81492100 0.8 10081008
22:00−5sw81590100 0.4 1007949
7 march, sun
sun701:00−4sw91687100 0.5 1006884
04:00−4sw61493100 0.1 1006753
07:00−6wsw71582100 1.1 1008727
10:00−8wsw7148342 0.0 1010806
13:00−7wsw7117821 0.0 10141057
16:00−7wsw7118054 0.1 10161326
19:00−9wsw5128577 0.1 1019515
22:00−12sw499287 0.0 1021178
8 march, mon
mon801:00−14sw379481 0.0 102397
04:00−14s349086 0.0 102169
07:00−12se5108591 0.0 1019217
10:00−8sse61288100 0.0 1014526
13:00−1ssw71383100 0.1 1009761
16:00+1s71580100 0.0 1005959
19:000ssw71679100 0.0 1002931
22:00−2sw101890100 0.3 10021222
9 march, tue
tue901:00−6w10158098 0.5 1008882
04:00−11wsw7148880 0.0 1013617
07:00−12wsw6138990 0.0 1017620
10:00−11wsw71388100 0.0 1019699
13:00−9wsw7118499 0.0 1021782
16:00−8sw6108287 0.0 1021821
19:00−10ssw4108874 0.0 1021273
22:00−11ssw499160 0.0 1021190